Location: Bakov nad Jizerou
(50.4784°N, 14.9394°E)
Time: 05:21:23
(UTC+00:00)

Cosmos 1447 Rocket - Pass Details

Date: 16 June 2021
Orbit: 954 x 996 km, 82.9° (Epoch: 28 July)

Event Time Altitude Azimuth Distance (km) Brightness Sun altitude
Exits shadow 21:50:22 18° 185° (S) 2,188 5.8 -14.5°
Maximum altitude 21:55:10 86° 99° (E) 980 4.5 -14.7°
Drops below altitude 10° 22:01:24 10° 11° (N) 2,711 7.9 -15.0°
Sets 22:03:54 0° 11° (N) 3,657 8.8 -15.1°
